User: anonymous   Login
Location: Bothwell
(42.3833°S, 147.0000°E)
Time: 08:40:28
(UTC+11:00)
Language:

COSMOS 2251 DEB - Orbit

View from above orbital plane
View from above orbital plane
View from above satellite
View from above satellite

Ground track
Ground track

The orbit data is extracted from the following two-line orbital elements,

1 38067U 93036BRZ 23088.19453000  .00003568  00000-0  79413-3 0  9997
2 38067  74.0221 359.4921 0076475  32.1779 118.2616 14.55513970481326
Epoch (UTC): 29 March 2023 04:40:07
Eccentricity: 0.0076475
inclination: 74.0221°
perigee height: 653 km
apogee height: 762 km
right ascension of ascending node: 359.4921°
argument of perigee: 32.1779°
revolutions per day: 14.55513970
mean anomaly at epoch: 118.2616°
orbit number at epoch: 48132

The dashed part of the orbit path shows where the satellite is in the earth's shadow,  

DLR